Event Log

Records: 354,142 Pagina: 13970 / 14166
CSV
ID Machine Gebeurtenis Tijd Uren Service Status USB ID
4917 200-043 AS Engine Stopped 18-08-2024 19:59:55 666 -Niet ingesteld 6F2A3055CE
4916 200-045 AS Engine Start 18-08-2024 19:56:49 616 -Niet ingesteld 6F2A305A15
4915 40-044XAI-S5 Engine Start 18-08-2024 19:50:00 158 -Niet ingesteld 25A2A752B7A
4914 40-044XAI-S5 Engine Stopped 18-08-2024 19:49:43 158 -Niet ingesteld 25A2A752B7A
4913 40-044XAI-S5 Generator Over Current Warning 18-08-2024 19:43:19 158 -Niet ingesteld 25A2A752B7A
4891 40-044XAI-S5 Engine Start 18-08-2024 19:35:19 158 -Niet ingesteld 25A2A752B7A
4892 40-044XAI-S5 Engine Stopped 18-08-2024 19:35:09 158 -Niet ingesteld 25A2A752B7A
4893 40-044XAI-S5 Generator Under Volts Warning 18-08-2024 19:35:00 158 -Niet ingesteld 25A2A752B7A
4894 40-044XAI-S5 Generator Over Current Warning 18-08-2024 19:34:51 158 -Niet ingesteld 25A2A752B7A
4895 40-044XAI-S5 Engine Start 18-08-2024 19:34:42 158 -Niet ingesteld 25A2A752B7A
4896 40-044XAI-S5 Engine Stopped 18-08-2024 19:33:37 158 -Niet ingesteld 25A2A752B7A
4897 40-044XAI-S5 kW Overload Alarm Shutdown 18-08-2024 19:33:28 158 -Niet ingesteld 25A2A752B7A
4898 40-044XAI-S5 Generator Over Current Warning 18-08-2024 19:33:10 158 -Niet ingesteld 25A2A752B7A
4899 300-016XASB-S5 ECU Lamp 18-08-2024 19:30:32 754 -Niet ingesteld 6E2CEFDBE7
4900 300-016XASB-S5 Engine Stopped 18-08-2024 19:30:12 754 -Niet ingesteld 6E2CEFDBE7
4901 100-073XASB-S5 Fuel Remaining 101% 18-08-2024 19:26:59 360 -Niet ingesteld 6F2AC16DF6
4902 40-044XAI-S5 Engine Start 18-08-2024 19:16:30 157 -Niet ingesteld 25A2A752B7A
4903 40-044XAI-S5 Engine Stopped 18-08-2024 19:16:05 157 -Niet ingesteld 25A2A752B7A
4904 40-044XAI-S5 kW Overload Alarm Shutdown 18-08-2024 19:15:56 157 -Niet ingesteld 25A2A752B7A
4905 40-044XAI-S5 Generator Over Current Warning 18-08-2024 19:13:46 157 -Niet ingesteld 25A2A752B7A
4906 40-044XAI-S5 Generator Over Current Warning 18-08-2024 19:13:21 157 -Niet ingesteld 25A2A752B7A
4907 40-044XAI-S5 Generator Over Current Warning 18-08-2024 19:13:12 157 -Niet ingesteld 25A2A752B7A
4908 100-072XASB-S5 Fuel Remaining 96% 18-08-2024 19:10:53 535 -Niet ingesteld 6F2AC3F7D8
4909 40-044XAI-S5 Generator Over Current Warning 18-08-2024 19:01:36 157 -Niet ingesteld 25A2A752B7A
4910 40-044XAI-S5 Engine Start 18-08-2024 18:59:59 157 -Niet ingesteld 25A2A752B7A
349,226–349,250 van 354,142